Content
SEND FEEDBACK

Daily
Averages
Monthly
Summary
China

WUHAN, CHINA


Home > Asia > China
Elevation: 75 feet     Latitude: 30 37N     Longitude: 114 08E

WEATHER
 
SELECT A DAY
Number of Records: 141,742;   Date Range: 1/29/00 - 10/29/14
 
SHARE

PRINT THIS DATA

[ ← Previous Day ]
WEATHER ALMANAC - SEPTEMBER 18, 2013
[ Next Day → ]
[ °C ]   °F
Weather ElementAverageHighLow
Temperature79 °F89.6 °F (3:00 pm)66 °F (5:00 am)
Dewpoint60.8 °F70 °F (8:00 pm)55.4 °F (6:00 am)
Humidity53.4 %81 % (11:00 pm)30 % (5:00 pm)
Barometer29.88 in29.92 in (8:00 am)29.83 in (2:00 am)
Wind Speed7.9 mph13.4 mph (10:00 am)
Weather ElementAverage
Visibility7.3 mi
Wind DirectionE (92.7 °)

Weather ElementTotal
Precipitation---
Cooling Degree Days12.8 (Base 65)
Growing Degree Days27.8 (Base 50)
Averaged from 30 records on September 18, 2013
WEATHER CONDITIONS BREAKOUT
WIND DIRECTION BREAKOUT
WEATHER BY HOUR - SEPTEMBER 18, 2013
[ °C ]   °F
Local TimeTemperatureDewpointHumidityBarometerVisibilityWind DirectionWind SpeedGust SpeedPrecipitationEventsConditions
1:00 AM77.0 °F57.2 °F50 %29.86 inESE (110°)6.7 mphClear
2:00 AM72.0 °F58.0 °F53 %29.83 inESE (110°)4.5 mph
2:00 AM75.2 °F59.0 °F57 %29.83 inESE (110°)6.7 mphClear
3:00 AM71.6 °F59.0 °F64 %29.86 inEast (100°)6.7 mphClear
4:00 AM71.6 °F59.0 °F64 %29.86 inEast (100°)8.9 mphClear
5:00 AM66.0 °F61.0 °F78 %29.85 inEast (90°)4.5 mph
5:00 AM69.8 °F57.2 °F64 %29.86 inEast (100°)8.9 mphClear
6:00 AM69.8 °F55.4 °F60 %29.86 inEast (90°)8.9 mphClear
7:00 AM71.6 °F55.4 °F57 %29.89 inEast (90°)8.9 mphClear
8:00 AM79.0 °F64.0 °F50 %29.89 in6.0 miENE (70°)2.2 mph
8:00 AM77.0 °F57.2 °F50 %29.92 inEast (80°)11.2 mphClear
9:00 AM77.0 °F59.0 °F54 %29.92 inEast (100°)8.9 mphClear
10:00 AM82.4 °F60.8 °F48 %29.92 inESE (120°)13.4 mphClear
11:00 AM82.4 °F60.8 °F48 %29.92 inEast (100°)13.4 mphClear
12:00 PM86.0 °F60.8 °F43 %29.89 inEast (100°)11.2 mphClear
1:00 PM87.8 °F60.8 °F40 %29.89 inESE (110°)11.2 mphClear
2:00 PM89.0 °F65.0 °F36 %29.85 in8.0 miEast (90°)6.7 mph
2:00 PM87.8 °F60.8 °F40 %29.86 inEast (100°)11.2 mphClear
3:00 PM89.6 °F59.0 °F36 %29.86 inEast (90°)11.2 mphClear
4:00 PM87.8 °F60.8 °F40 %29.86 inEast (100°)11.2 mphClear
5:00 PM88.0 °F61.0 °F30 %29.84 in8.0 miEast (90°)8.9 mph
5:00 PM86.0 °F60.8 °F43 %29.86 inESE (120°)8.9 mphClear
6:00 PM84.2 °F60.8 °F45 %29.86 inSE (130°)6.7 mphClear
7:00 PM82.4 °F60.8 °F48 %29.86 inEast (100°)6.7 mphClear
8:00 PM75.0 °F70.0 °F79 %29.88 inESE (110°)2.2 mph
8:00 PM80.6 °F62.6 °F54 %29.89 inEast (80°)6.7 mphClear
9:00 PM78.8 °F64.4 °F61 %29.92 inENE (60°)6.7 mphClear
10:00 PM77.0 °F64.4 °F65 %29.92 inNE (40°)4.5 mphClear
11:00 PM72.0 °F67.0 °F81 %29.90 inNE (40°)2.2 mph
11:00 PM75.2 °F62.6 °F65 %29.92 inNE (50°)6.7 mphClear
Hourly data recorded from ZHHH, located miles away from Wuhan, China







STORIES FROM OUR PARTNERS